TimePDT,TemperatureF,Dew PointF,Humidity,Sea Level PressureIn,VisibilityMPH,Wind Direction,Wind SpeedMPH,Gust SpeedMPH,PrecipitationIn,Events,Conditions,WindDirDegrees,DateUTC
12:53 AM,35.1,21.9,59,29.90,10.0,WNW,19.6,27.6,N/A,,Clear,300,2013-03-21 07:53:00
1:53 AM,35.1,21.9,59,29.91,10.0,WNW,18.4,28.8,N/A,,Mostly Cloudy,300,2013-03-21 08:53:00
2:53 AM,34.0,21.9,61,29.94,10.0,WNW,17.3,23.0,N/A,,Clear,300,2013-03-21 09:53:00
3:53 AM,35.1,21.9,59,29.96,10.0,WNW,16.1,-,N/A,,Clear,290,2013-03-21 10:53:00
4:53 AM,35.1,21.0,57,29.99,10.0,NW,15.0,-,N/A,,Overcast,310,2013-03-21 11:53:00
5:53 AM,34.0,23.0,64,30.00,10.0,WNW,12.7,-,N/A,,Scattered Clouds,300,2013-03-21 12:53:00
6:53 AM,33.1,23.0,66,30.02,10.0,WNW,9.2,-,N/A,,Clear,290,2013-03-21 13:53:00
7:53 AM,35.1,24.1,64,30.03,10.0,WNW,9.2,-,N/A,,Clear,300,2013-03-21 14:53:00
8:53 AM,39.0,23.0,53,30.04,10.0,WNW,17.3,25.3,N/A,,Clear,300,2013-03-21 15:53:00
9:53 AM,39.9,24.1,53,30.05,10.0,WNW,18.4,25.3,N/A,,Mostly Cloudy,300,2013-03-21 16:53:00
10:53 AM,43.0,23.0,45,30.07,10.0,NW,20.7,33.4,N/A,,Mostly Cloudy,310,2013-03-21 17:53:00
11:53 AM,44.1,23.0,43,30.08,10.0,NNW,20.7,29.9,N/A,,Mostly Cloudy,330,2013-03-21 18:53:00
12:53 PM,45.0,24.1,44,30.08,10.0,NW,15.0,23.0,N/A,,Overcast,310,2013-03-21 19:53:00
1:53 PM,48.0,21.0,34,30.06,10.0,NW,23.0,-,N/A,,Mostly Cloudy,310,2013-03-21 20:53:00
2:53 PM,46.9,24.1,41,30.05,10.0,NW,18.4,27.6,N/A,,Partly Cloudy,320,2013-03-21 21:53:00
3:53 PM,46.0,21.9,39,30.04,10.0,NW,18.4,25.3,N/A,,Clear,320,2013-03-21 22:53:00
4:53 PM,45.0,21.0,39,30.06,10.0,WNW,18.4,28.8,N/A,,Scattered Clouds,300,2013-03-21 23:53:00
5:53 PM,44.1,19.9,38,30.07,10.0,NW,18.4,26.5,N/A,,Mostly Cloudy,310,2013-03-22 00:53:00
6:53 PM,37.0,27.0,67,30.10,10.0,NNW,15.0,-,N/A,,Overcast,330,2013-03-22 01:53:00
7:15 PM,35.6,28.4,75,30.06,2.0,NW,16.1,-,0.00,Snow,Light Snow,310,2013-03-22 02:15:00
7:32 PM,33.8,28.4,81,30.06,1.0,WNW,12.7,-,0.00,Snow,Light Snow,300,2013-03-22 02:32:00
7:43 PM,33.8,28.4,81,30.06,1.2,NW,15.0,23.0,0.00,Snow,Light Snow,310,2013-03-22 02:43:00
7:50 PM,33.8,28.4,81,30.06,0.8,NW,11.5,23.0,0.00,Snow,Light Snow,310,2013-03-22 02:50:00
7:51 PM,34.0,28.9,82,30.11,0.8,NW,12.7,-,0.00,Snow,Light Snow,320,2013-03-22 02:51:00
7:58 PM,33.8,28.4,81,30.06,1.0,NNW,15.0,-,0.00,Snow,Light Snow,330,2013-03-22 02:58:00
8:07 PM,33.8,28.4,81,30.07,0.8,WNW,10.4,-,0.00,Snow,Light Snow,290,2013-03-22 03:07:00
8:11 PM,33.8,28.4,81,30.07,1.0,WNW,10.4,-,0.00,Snow,Light Snow,300,2013-03-22 03:11:00
8:16 PM,33.8,28.4,81,30.07,2.0,WNW,10.4,-,0.00,Snow,Light Snow,300,2013-03-22 03:16:00
8:34 PM,33.8,28.4,81,30.07,1.0,West,15.0,-,0.00,Snow,Light Snow,280,2013-03-22 03:34:00
8:41 PM,33.8,28.4,81,30.07,0.5,West,17.3,-,0.01,Fog-Snow,Snow,280,2013-03-22 03:41:00
8:53 PM,33.1,28.9,85,30.12,0.8,WNW,19.6,-,0.01,Snow,Light Snow,290,2013-03-22 03:53:00
8:56 PM,33.8,28.4,81,30.07,1.2,West,18.4,-,0.00,Snow,Light Snow,280,2013-03-22 03:56:00
9:13 PM,33.8,28.4,81,30.08,3.0,West,12.7,-,0.00,Snow,Light Snow,280,2013-03-22 04:13:00
9:25 PM,33.8,28.4,81,30.08,4.0,WNW,15.0,-,0.00,Snow,Light Snow,290,2013-03-22 04:25:00
9:37 PM,33.8,28.4,81,30.08,8.0,WNW,12.7,-,0.00,Snow,Light Snow,300,2013-03-22 04:37:00
9:53 PM,33.1,27.0,78,30.12,10.0,WNW,17.3,-,0.00,,Overcast,290,2013-03-22 04:53:00
10:53 PM,30.9,24.1,76,30.11,10.0,NW,16.1,-,N/A,,Clear,320,2013-03-22 05:53:00
11:53 PM,28.9,21.0,72,30.12,10.0,NW,11.5,-,N/A,,Clear,310,2013-03-22 06:53:00